Home > Weather > Tampere > Past weeks

Flag for Finland Past Weather in Tampere, Finland — Yesterday and Last 2 Weeks

Now
70 °F

Scattered clouds.


Feels Like: 70 °F
Forecast: 55 / 71 °F
Wind: 3 mph from South

Location: Tampere / Pirkkala

Current Time: Jun 28, 2016 at 8:09:26 PM

Latest Report: Jun 28, 2016 at 7:20 PM


Visibility: N/A

Pressure: 29.89 "Hg

Humidity: 57%

Dew Point: 54 °F

Location of TampereLocation

Past Weather in Tampere — Graph

°F

Tampere Temperature Yesterday

Maximum temperature yesterday: 68 °F (at 12:20 AM)
Minimum temperature yesterday: 57 °F (at 11:20 PM)
Average temperature yesterday: 63 °F

High & Low Weather Summary for the Past Weeks

 TemperatureHumidityPressure
High75 °F (Jun 25, 6:20 PM)100% (Jun 16, 11:20 AM)30.21 "Hg (Jun 16, 11:20 AM)
Low41 °F (Jun 14, 4:20 AM)22% (Jun 15, 6:20 PM)29.27 "Hg (Jun 18, 8:50 AM)
Average61 °F77%29.87 "Hg
* Reported Jun 13 7:20 PM — Jun 28 7:20 PM, Tampere, Weather by CustomWeather, © 2016

Note: Actual official high and low records may vary slightly from our data, if they occured in-between our weather recording intervals... More about our weather records

Advertising

Tampere Weather History for the Previous 24 Hours

Scroll right to see more
 ConditionsComfort  
Time TempWeatherWind HumidityBarometerVisibility
7:20 PM
Tue, Jun 28
70 °FScattered clouds.3 mph57%29.89 "HgN/A
6:20 PM70 °FPartly sunny.5 mph57%29.89 "HgN/A
5:50 PM70 °FBroken clouds.7 mph53%29.89 "HgN/A
5:20 PM70 °FPassing clouds.9 mph57%29.89 "HgN/A
4:50 PM72 °FPassing clouds.5 mph57%29.89 "HgN/A
4:20 PM70 °FPassing clouds.3 mph57%29.89 "HgN/A
3:50 PM70 °FPassing clouds.6 mph57%29.89 "HgN/A
3:20 PM68 °FBroken clouds.6 mph60%29.89 "HgN/A
2:50 PM68 °FBroken clouds.6 mph60%29.89 "HgN/A
2:20 PM68 °FPartly sunny.5 mph60%29.89 "HgN/A
1:50 PM68 °FPartly sunny.8 mph56%29.89 "HgN/A
1:20 PM68 °FPartly sunny.9 mph60%29.89 "HgN/A
12:50 PM68 °FScattered clouds.8 mph64%29.89 "HgN/A
12:20 PM66 °FScattered clouds.8 mph64%29.89 "HgN/A
11:50 AM66 °FScattered clouds.6 mph68%29.89 "HgN/A
11:20 AM66 °FScattered clouds.6 mph68%29.89 "HgN/A
10:50 AM66 °FScattered clouds.7 mph64%29.89 "HgN/A
10:20 AM64 °FScattered clouds.7 mph73%29.89 "HgN/A
9:50 AM63 °FPartly sunny.6 mph83%29.89 "HgN/A
9:20 AM63 °FPartly sunny.6 mph77%29.86 "HgN/A
8:50 AM61 °FPartly sunny.5 mph88%29.86 "HgN/A
8:20 AM61 °FPartly sunny.6 mph88%29.86 "HgN/A
7:50 AM59 °FSunny.6 mph94%29.86 "Hg10 mi
7:20 AM57 °FSunny.3 mph94%29.86 "Hg10 mi
6:50 AM55 °FSunny.2 mph100%29.86 "Hg10 mi
6:20 AM55 °FCool.1 mph100%29.86 "Hg5 mi
5:50 AM54 °FFog.No wind100%29.86 "Hg1 mi
5:20 AM52 °FFog.1 mph100%29.86 "Hg0 mi
4:50 AM54 °FFog.1 mph94%29.86 "Hg0 mi
4:20 AM54 °FFog.No wind94%29.86 "Hg0 mi
3:50 AM52 °FFog.No wind100%29.86 "Hg0 mi
3:20 AM52 °FFog.2 mph100%29.86 "Hg0 mi
2:50 AM50 °FFog.3 mph100%29.86 "Hg0 mi
2:20 AM52 °FFog.No wind100%29.86 "Hg0 mi
1:50 AM54 °FFog.3 mph100%29.86 "Hg0 mi
1:20 AM54 °FLight fog.5 mph100%29.86 "Hg1 mi
12:50 AM55 °FClear.2 mph100%29.86 "Hg10 mi
12:20 AM57 °FPartly cloudy.2 mph100%29.86 "HgN/A
11:50 PM
Mon, Jun 27
57 °FOvercast.2 mph100%29.86 "HgN/A
11:20 PM57 °FScattered showers. Mostly cloudy.2 mph100%29.83 "HgN/A
10:50 PM59 °FScattered showers. Mostly cloudy.2 mph94%29.83 "HgN/A
10:20 PM59 °FLight rain. More clouds than sun.2 mph94%29.83 "HgN/A
9:50 PM59 °FLight rain. Overcast.2 mph94%29.83 "HgN/A
9:20 PM59 °FRain. Broken clouds.6 mph94%29.83 "HgN/A
8:50 PM59 °FLight rain. Mostly cloudy.3 mph100%29.83 "Hg5 mi
8:20 PM59 °FRain. Cloudy.6 mph100%29.83 "Hg6 mi
Weather by CustomWeather, © 2016

See weather overviewHow to use our weather pages